Charles City, IA

10:52 AM CDT on May 25, 2017 (GMT -0500)
Charles City Municipal

Weather History for KCCY - February, 2015

Change the Weather History Date:

Friday, February 13, 2015

  Actual Average Record
Temperature  
Mean Temperature 18 °F -  
Max Temperature 32 °F 30 °F 54 °F (1976)
Min Temperature 5 °F 12 °F -15 °F (1986)
Degree Days  
Heating Degree Days 46    
Moisture  
Dew Point 15 °F    
Average Humidity 81    
Maximum Humidity 93    
Minimum Humidity 69    
Precipitation  
Precipitation 0.00 in - - ()
Sea Level Pressure  
Sea Level Pressure 30.10 in    
Wind  
Wind Speed 12 mph (WSW)    
Max Wind Speed 24 mph    
Max Gust Speed 31 mph    
Visibility 10 miles    
Events      
Averages and records for this station are not official NWS values.
T = Trace of Precipitation, MM = Missing Value Source: NWS Daily Summary

Daily Weather History Graph

Daily Weather History Graph

Search for Another Location

Airport or City:

Trip Planner

Search our weather history database for the weather conditions in past years. The results will help you decide how hot, cold, wet, or windy it might be!

Date:

Astronomy

Feb. 13, 2015 Rise Set
Actual Time 7:11 AM CST 5:38 PM CST
Civil Twilight 6:41 AM CST 6:08 PM CST
Nautical Twilight 6:08 AM CST 6:41 PM CST
Astronomical Twilight 5:35 AM CST 7:14 PM CST
Moon 2:17 AM CST (2/13) 12:17 PM CST (2/13)
Length of Visible Light 11h 26m
Length of Day
10h 27m
Waning Crescent, 34% of the Moon is Illuminated
Feb 13
Waning Crescent
Feb 18
New
Feb 25
First Quarter
Mar 5
Full
Mar 13
Last Quarter

Hourly Weather History & Observations

Time (CST) Temp. Windchill Dew Point Humidity Pressure Visibility Wind Dir Wind Speed Gust Speed Precip Events Conditions
12:15 AM 6.8 °F -4.8 °F 1.4 °F 79% 30.32 in 10.0 mi SSE 6.9 mph - N/A   Mostly Cloudy
12:35 AM 6.8 °F -5.9 °F 1.4 °F 79% 30.30 in 10.0 mi SE 8.1 mph - N/A   Overcast
1:00 AM 6.8 °F -4.8 °F 1.4 °F 79% 30.30 in 10.0 mi SSE 6.9 mph - N/A   Mostly Cloudy
1:15 AM 5.0 °F -8.1 °F 1.4 °F 85% 30.29 in 10.0 mi South 8.1 mph - N/A   Mostly Cloudy
1:35 AM 5.0 °F -10.0 °F 1.4 °F 85% 30.28 in 10.0 mi South 10.4 mph - N/A   Scattered Clouds
1:55 AM 6.8 °F -7.8 °F 1.4 °F 79% 30.27 in 10.0 mi South 10.4 mph - N/A   Mostly Cloudy
2:15 AM 6.8 °F -6.9 °F 3.2 °F 85% 30.25 in 10.0 mi South 9.2 mph - N/A   Overcast
2:35 AM 8.6 °F -5.5 °F 5.0 °F 85% 30.24 in 10.0 mi South 10.4 mph - N/A   Overcast
2:55 AM 8.6 °F -6.3 °F 5.0 °F 85% 30.22 in 10.0 mi South 11.5 mph - N/A   Overcast
3:15 AM 10.4 °F -2.4 °F 5.0 °F 79% 30.23 in 10.0 mi South 9.2 mph - N/A   Overcast
3:35 AM 10.4 °F -3.3 °F 6.8 °F 85% 30.22 in 10.0 mi SSW 10.4 mph - N/A   Overcast
3:55 AM 10.4 °F -3.3 °F 6.8 °F 85% 30.21 in 10.0 mi SSW 10.4 mph - N/A   Overcast
4:15 AM 12.2 °F -3.1 °F 6.8 °F 79% 30.20 in 10.0 mi SSW 13.8 mph - N/A   Overcast
4:35 AM 12.2 °F -1.8 °F 6.8 °F 79% 30.20 in 10.0 mi SSW 11.5 mph - N/A   Overcast
4:55 AM 12.2 °F -0.2 °F 8.6 °F 85% 30.19 in 10.0 mi SSW 9.2 mph - N/A   Overcast
5:15 AM 14.0 °F 1.2 °F 8.6 °F 79% 30.20 in 10.0 mi SSW 10.4 mph - N/A   Overcast
5:35 AM 14.0 °F 0.5 °F 8.6 °F 79% 30.18 in 10.0 mi SSW 11.5 mph - N/A   Overcast
5:55 AM 14.0 °F 0.5 °F 8.6 °F 79% 30.19 in 10.0 mi SSW 11.5 mph - N/A   Overcast
6:15 AM 14.0 °F 1.2 °F 10.4 °F 86% 30.19 in 10.0 mi SSW 10.4 mph 16.1 mph N/A   Overcast
6:35 AM 14.0 °F 0.5 °F 10.4 °F 86% 30.18 in 10.0 mi SSW 11.5 mph - N/A   Overcast
6:55 AM 14.0 °F 1.2 °F 10.4 °F 86% 30.19 in 10.0 mi SSW 10.4 mph - N/A   Overcast
7:15 AM 14.0 °F 0.5 °F 10.4 °F 86% 30.18 in 10.0 mi SSW 11.5 mph - N/A   Overcast
7:35 AM 14.0 °F -0.2 °F 10.4 °F 86% 30.17 in 10.0 mi SSW 12.7 mph - N/A   Overcast
7:55 AM 14.0 °F 1.2 °F 10.4 °F 86% 30.16 in 10.0 mi SSW 10.4 mph - N/A   Overcast
8:15 AM 15.8 °F 2.7 °F 12.2 °F 86% 30.15 in 10.0 mi SSW 11.5 mph 17.3 mph N/A   Overcast
8:35 AM 15.8 °F 2.1 °F 12.2 °F 86% 30.14 in 10.0 mi SSW 12.7 mph - N/A   Overcast
8:55 AM 15.8 °F 2.1 °F 12.2 °F 86% 30.13 in 10.0 mi SSW 12.7 mph - N/A   Overcast
9:15 AM 17.6 °F 3.7 °F 14.0 °F 86% 30.11 in 10.0 mi SSW 13.8 mph - N/A   Mostly Cloudy
9:35 AM 17.6 °F 5.0 °F 14.0 °F 86% 30.12 in 10.0 mi SW 11.5 mph 18.4 mph N/A   Mostly Cloudy
9:55 AM 19.4 °F 5.5 °F 14.0 °F 80% 30.12 in 10.0 mi SW 15.0 mph - N/A   Overcast
10:15 AM 19.4 °F 4.1 °F 14.0 °F 80% 30.11 in 10.0 mi SW 18.4 mph - N/A   Overcast
10:35 AM 21.2 °F 8.3 °F 14.0 °F 74% 30.10 in 10.0 mi SW 13.8 mph 24.2 mph N/A   Overcast
10:55 AM 21.2 °F 7.3 °F 14.0 °F 74% 30.10 in 10.0 mi SW 16.1 mph 25.3 mph N/A   Overcast
11:15 AM 23.0 °F 8.7 °F 15.8 °F 74% 30.09 in 10.0 mi WSW 18.4 mph - N/A   Mostly Cloudy
11:35 AM 23.0 °F 8.7 °F 15.8 °F 74% 30.10 in 10.0 mi WSW 18.4 mph - N/A   Mostly Cloudy
11:55 AM 24.8 °F 11.5 °F 15.8 °F 69% 30.09 in 10.0 mi WSW 17.3 mph - N/A   Overcast
12:15 PM 24.8 °F 11.5 °F 17.6 °F 74% 30.07 in 10.0 mi West 17.3 mph 24.2 mph N/A   Mostly Cloudy
12:35 PM 24.8 °F 11.9 °F 17.6 °F 74% 30.06 in 10.0 mi WSW 16.1 mph 21.9 mph N/A   Mostly Cloudy
12:55 PM 26.6 °F 13.4 °F 17.6 °F 69% 30.05 in 10.0 mi West 18.4 mph - N/A   Partly Cloudy
1:15 PM 26.6 °F 13.8 °F 19.4 °F 74% 30.04 in 10.0 mi WSW 17.3 mph - N/A   Clear
1:35 PM 26.6 °F 14.7 °F 19.4 °F 74% 30.02 in 10.0 mi WSW 15.0 mph - N/A   Mostly Cloudy
1:55 PM 28.4 °F 16.6 °F 19.4 °F 69% 30.00 in 10.0 mi WSW 16.1 mph - N/A   Scattered Clouds
2:15 PM 28.4 °F 15.4 °F 19.4 °F 69% 30.00 in 10.0 mi West 19.6 mph - N/A   Clear
2:35 PM 28.4 °F 17.0 °F 21.2 °F 74% 30.00 in 10.0 mi West 15.0 mph 21.9 mph N/A   Clear
2:55 PM 30.2 °F 18.9 °F 23.0 °F 75% 29.99 in 10.0 mi WSW 16.1 mph - N/A   Clear
3:15 PM 30.2 °F 19.3 °F 23.0 °F 75% 29.99 in 10.0 mi West 15.0 mph - N/A   Partly Cloudy
3:35 PM 30.2 °F 18.9 °F 23.0 °F 75% 29.99 in 10.0 mi West 16.1 mph 21.9 mph N/A   Scattered Clouds
3:55 PM 30.2 °F 18.5 °F 23.0 °F 75% 29.98 in 10.0 mi West 17.3 mph - N/A   Overcast
4:15 PM 30.2 °F 19.8 °F 24.8 °F 80% 29.98 in 10.0 mi West 13.8 mph - N/A   Overcast
4:35 PM 32.0 °F 21.6 °F 24.8 °F 75% 29.98 in 10.0 mi WNW 15.0 mph - N/A   Overcast
4:55 PM 32.0 °F 22.1 °F 26.6 °F 80% 29.98 in 10.0 mi WNW 13.8 mph - N/A   Overcast
5:15 PM 32.0 °F 22.1 °F 26.6 °F 80% 29.98 in 10.0 mi WNW 13.8 mph - N/A   Overcast
5:35 PM 32.0 °F 23.6 °F 26.6 °F 80% 29.98 in 10.0 mi WNW 10.4 mph - N/A   Overcast
5:55 PM 30.2 °F 20.2 °F 26.6 °F 86% 29.98 in 10.0 mi WNW 12.7 mph - N/A   Overcast
6:15 PM 32.0 °F 18.9 °F 26.6 °F 80% 29.98 in 10.0 mi WNW 24.2 mph 29.9 mph N/A   Overcast
6:35 PM 30.2 °F 18.1 °F 26.6 °F 86% 29.99 in 10.0 mi WNW 18.4 mph 27.6 mph N/A   Overcast
6:55 PM 28.4 °F 14.7 °F 24.8 °F 86% 30.00 in 10.0 mi WNW 21.9 mph 31.1 mph N/A   Overcast
7:15 PM 28.4 °F 15.8 °F 24.8 °F 86% 29.99 in 10.0 mi NW 18.4 mph - N/A   Overcast
7:35 PM 26.6 °F 13.1 °F 24.8 °F 93% 30.00 in 10.0 mi NW 19.6 mph 26.5 mph N/A   Overcast
7:55 PM 26.6 °F 13.8 °F 23.0 °F 86% 29.99 in 10.0 mi NW 17.3 mph 24.2 mph N/A   Scattered Clouds
8:15 PM 24.8 °F 12.4 °F 23.0 °F 93% 30.00 in 10.0 mi NW 15.0 mph - N/A   Scattered Clouds
8:35 PM 24.8 °F 10.7 °F 21.2 °F 86% 30.00 in 10.0 mi NW 19.6 mph - N/A   Mostly Cloudy
8:55 PM 23.0 °F 8.0 °F 19.4 °F 86% 30.01 in 10.0 mi NW 20.7 mph - N/A   Mostly Cloudy
9:20 PM 21.2 °F 5.2 °F 17.6 °F 86% 30.03 in - NW 21.9 mph 29.9 mph N/A   Scattered Clouds
9:35 PM 21.2 °F 6.0 °F 17.6 °F 86% 30.03 in 10.0 mi NW 19.6 mph 29.9 mph N/A   Partly Cloudy
9:55 PM 21.2 °F 6.8 °F 15.8 °F 80% 30.03 in 10.0 mi NW 17.3 mph 24.2 mph N/A   Mostly Cloudy
10:15 PM 19.4 °F 4.1 °F 14.0 °F 80% 30.03 in 10.0 mi NW 18.4 mph 28.8 mph N/A   Mostly Cloudy
10:35 PM 19.4 °F 3.6 °F 14.0 °F 80% 30.03 in 10.0 mi NW 19.6 mph 26.5 mph N/A   Overcast
10:55 PM 17.6 °F 1.3 °F 12.2 °F 79% 30.03 in 10.0 mi NW 19.6 mph 26.5 mph N/A   Scattered Clouds
11:15 PM 17.6 °F 2.2 °F 12.2 °F 79% 30.02 in 10.0 mi NW 17.3 mph - N/A   Partly Cloudy
11:35 PM 17.6 °F 1.3 °F 12.2 °F 79% 30.02 in 10.0 mi NW 19.6 mph 26.5 mph N/A   Mostly Cloudy
11:55 PM 17.6 °F 1.3 °F 12.2 °F 79% 30.01 in 10.0 mi NW 19.6 mph - N/A   Overcast